| time (UTC) | temp F | wind direction | speed knots | gust knots | rain 1hr in | rain 24hr in | rain mn in | humidity % | barometer mb |
| 20260502163214 | 69 | 63 | 2.6 | 11.3 | 0.00 | 1.86 | 0.00 | 60 | 1016.7 |
| 20260502162716 | 69 | 295 | 2.6 | 9.6 | 0.00 | 1.88 | 0.00 | 61 | 1016.7 |
| 20260502162209 | 69 | 43 | 2.6 | 7.0 | 0.00 | 1.90 | 0.00 | 63 | 1016.8 |
| 20260502161709 | 68 | 319 | 1.7 | 7.0 | 0.00 | 2.02 | 0.00 | 63 | 1016.7 |
| 20260502161207 | 69 | 293 | 1.7 | 6.1 | 0.00 | 2.33 | 0.00 | 65 | 1016.8 |
| 20260502160939 | 67 | 355 | 2.6 | 7.8 | 0.00 | 2.54 | 0.00 | 68 | 1016.8 |
| 20260502160439 | 67 | 75 | 2.6 | 7.8 | 0.00 | 2.58 | 0.00 | 65 | 1016.8 |
| 20260502152157 | 65 | 349 | 1.7 | 7.8 | 0.00 | 2.59 | 0.00 | 72 | 1016.6 |
| 20260502151926 | 65 | 41 | 2.6 | 10.4 | 0.00 | 2.59 | 0.00 | 73 | 1016.7 |
| 20260502151156 | 65 | 17 | 2.6 | 10.4 | 0.00 | 2.59 | 0.00 | 73 | 1016.7 |
| 20260502150653 | 64 | 43 | 2.6 | 8.7 | 0.00 | 2.59 | 0.00 | 74 | 1016.6 |
| 20260502150153 | 64 | 30 | 2.6 | 8.7 | 0.00 | 2.59 | 0.00 | 73 | 1016.6 |
| 20260502130130 | 57 | 319 | 0.9 | 4.3 | 0.00 | 2.68 | 0.00 | 90 | 1015.3 |
| 20260502123626 | 55 | 237 | 0.0 | 1.7 | 0.00 | 2.68 | 0.00 | 91 | 1015.1 |
| 20260502123125 | 55 | 326 | 0.0 | 4.3 | 0.00 | 2.69 | 0.00 | 91 | 1015.1 |
| 20260502122626 | 55 | 320 | 0.9 | 4.3 | 0.00 | 2.69 | 0.00 | 91 | 1014.9 |
| 20260502122127 | 55 | 330 | 0.9 | 3.5 | 0.00 | 2.69 | 0.00 | 92 | 1014.7 |
| 20260502121623 | 54 | 319 | 0.0 | 3.5 | 0.00 | 2.69 | 0.00 | 92 | 1014.5 |
| 20260502121121 | 54 | 356 | 0.0 | 3.5 | 0.00 | 2.69 | 0.00 | 93 | 1014.4 |
| 20260502120621 | 53 | 4 | 0.0 | 3.5 | 0.00 | 2.69 | 0.00 | 93 | 1014.4 |
| 20260502120122 | 53 | 28 | 0.0 | 2.6 | 0.00 | 2.70 | 0.00 | 93 | 1014.5 |
| 20260502115621 | 53 | 3 | 0.9 | 5.2 | 0.00 | 2.70 | 0.00 | 93 | 1014.5 |
| 20260502115121 | 53 | 15 | 0.9 | 5.2 | 0.00 | 2.70 | 0.00 | 93 | 1014.4 |
| 20260502114613 | 53 | 300 | 0.9 | 6.1 | 0.00 | 2.70 | 0.00 | 92 | 1014.4 |
| 20260502114114 | 53 | 302 | 0.9 | 6.1 | 0.00 | 2.70 | 0.00 | 92 | 1014.4 |
| 20260502113846 | 54 | 338 | 0.9 | 6.1 | 0.00 | 2.70 | 0.00 | 92 | 1014.2 |
| 20260502113115 | 54 | 302 | 1.7 | 5.2 | 0.00 | 2.70 | 0.00 | 92 | 1014.1 |
| 20260502112614 | 54 | 349 | 0.9 | 5.2 | 0.00 | 2.70 | 0.00 | 92 | 1014.0 |
| 20260502112114 | 54 | 5 | 0.9 | 6.1 | 0.00 | 2.70 | 0.00 | 92 | 1014.0 |
| 20260502111610 | 54 | 9 | 0.9 | 6.1 | 0.00 | 2.70 | 0.00 | 92 | 1013.9 |
| 20260502111341 | 54 | 313 | 0.0 | 3.5 | 0.00 | 2.70 | 0.00 | 92 | 1013.8 |
| 20260502110607 | 54 | 303 | 0.0 | 4.3 | 0.00 | 2.70 | 0.00 | 92 | 1013.8 |
| 20260502110108 | 54 | 314 | 0.0 | 4.3 | 0.00 | 2.70 | 0.00 | 92 | 1013.9 |
| 20260502105608 | 54 | 328 | 0.0 | 2.6 | 0.00 | 2.70 | 0.00 | 91 | 1014.0 |
| 20260502105108 | 54 | 354 | 0.0 | 2.6 | 0.00 | 2.70 | 0.00 | 91 | 1013.9 |
| 20260502104601 | 54 | 349 | 0.0 | 2.6 | 0.00 | 2.70 | 0.00 | 91 | 1013.8 |
| 20260502104100 | 54 | 343 | 0.0 | 1.7 | 0.00 | 2.70 | 0.00 | 91 | 1013.7 |
| 20260502103558 | 54 | 330 | 0.0 | 0.9 | 0.00 | 2.70 | 0.00 | 90 | 1013.7 |
| 20260502103056 | 54 | 330 | 0.0 | 1.7 | 0.00 | 2.70 | 0.00 | 90 | 1013.7 |
| 20260502102828 | 55 | 330 | 0.0 | 1.7 | 0.00 | 2.70 | 0.00 | 89 | 1013.6 |
| 20260502102322 | 55 | 12 | 0.0 | 4.3 | 0.00 | 2.70 | 0.00 | 89 | 1013.5 |
| 20260502101550 | 55 | 274 | 0.0 | 4.3 | 0.00 | 2.70 | 0.00 | 89 | 1013.3 |
| 20260502101321 | 55 | 81 | 0.0 | 3.5 | 0.00 | 2.71 | 0.00 | 90 | 1013.2 |
| 20260502100551 | 55 | 94 | 0.0 | 2.6 | 0.00 | 2.71 | 0.00 | 89 | 1013.1 |
| 20260502091035 | 56 | 60 | 1.7 | 5.2 | 0.00 | 2.73 | 0.00 | 90 | 1012.2 |
| 20260502090816 | 56 | 335 | 1.7 | 5.2 | 0.00 | 2.73 | 0.00 | 91 | 1012.2 |
| 20260502090536 | 56 | 40 | 1.7 | 5.2 | 0.00 | 2.73 | 0.00 | 90 | 1012.2 |
| 20260502071522 | 56 | 30 | 1.7 | 8.7 | 0.00 | 2.74 | 0.00 | 92 | 1012.0 |
| 20260502071017 | 56 | 326 | 1.7 | 7.8 | 0.00 | 2.74 | 0.00 | 92 | 1012.2 |
| 20260502070517 | 56 | 288 | 1.7 | 7.8 | 0.00 | 2.74 | 0.00 | 92 | 1012.1 |
| 20260502070018 | 56 | 93 | 2.6 | 8.7 | 0.00 | 2.74 | 0.00 | 92 | 1012.0 |
| 20260502065517 | 56 | 13 | 2.6 | 8.7 | 0.00 | 2.74 | 0.00 | 92 | 1012.0 |
| 20260502065017 | 56 | 319 | 1.7 | 7.8 | 0.00 | 2.74 | 0.00 | 92 | 1012.0 |
| 20260502064518 | 56 | 340 | 1.7 | 7.8 | 0.00 | 2.74 | 0.00 | 93 | 1011.9 |
| 20260502064012 | 56 | 338 | 0.9 | 3.5 | 0.00 | 2.74 | 0.00 | 93 | 1012.0 |
| 20260502063513 | 56 | 58 | 0.9 | 4.3 | 0.00 | 2.74 | 0.00 | 93 | 1011.9 |
| 20260502063019 | 57 | 326 | 0.9 | 6.1 | 0.00 | 2.74 | 0.00 | 94 | 1011.8 |
| 20260502063012 | 56 | 72 | 0.9 | 6.1 | 0.00 | 2.74 | 0.00 | 93 | 1011.9 |
| 20260502062012 | 57 | 346 | 0.9 | 12.2 | 0.00 | 2.74 | 0.00 | 94 | 1011.8 |
| 20260502061514 | 57 | 109 | 1.7 | 12.2 | 0.00 | 2.74 | 0.00 | 94 | 1011.7 |
| 20260502061009 | 57 | 51 | 1.7 | 7.0 | 0.00 | 2.74 | 0.00 | 94 | 1011.6 |
| 20260502060508 | 56 | 340 | 0.9 | 5.2 | 0.00 | 2.74 | 0.00 | 94 | 1011.6 |
| 20260502060008 | 57 | 49 | 0.9 | 6.1 | 0.00 | 2.75 | 0.00 | 94 | 1011.5 |
| 20260502055508 | 57 | 119 | 1.7 | 10.4 | 0.00 | 2.75 | 0.00 | 93 | 1011.6 |
| 20260502055009 | 56 | 350 | 1.7 | 10.4 | 0.00 | 2.76 | 0.00 | 93 | 1011.6 |
| 20260502054510 | 57 | 3 | 1.7 | 9.6 | 0.00 | 2.77 | 0.00 | 93 | 1011.6 |
| 20260502054236 | 57 | 46 | 1.7 | 9.6 | 0.00 | 2.78 | 0.00 | 94 | 1011.5 |
| 20260502053602 | 57 | 78 | 1.7 | 8.7 | 0.00 | 2.84 | 0.00 | 95 | 1011.5 |
| 20260502053548 | 57 | 19 | 1.7 | 7.0 | 0.00 | 2.81 | 0.00 | 94 | 1011.5 |
| 20260502053449 | 57 | 60 | 1.7 | 7.8 | 0.00 | 2.83 | 0.00 | 94 | 1011.5 |
| 20260502053336 | 56 | 56 | 2.6 | 9.6 | 0.00 | 2.84 | 0.00 | 94 | 1011.5 |
| 20260502053232 | 56 | 65 | 2.6 | 9.6 | 0.00 | 2.84 | 0.00 | 94 | 1011.5 |
| 20260502051506 | 57 | 78 | 1.7 | 8.7 | 0.00 | 2.84 | 0.00 | 95 | 1011.5 |
| 20260502050959 | 57 | 21 | 1.7 | 8.7 | 0.00 | 2.85 | 0.00 | 95 | 1011.6 |
| 20260502050458 | 57 | 349 | 1.7 | 7.8 | 0.00 | 2.85 | 0.00 | 95 | 1011.6 |
| 20260502045959 | 57 | 80 | 0.9 | 7.0 | 0.00 | 2.86 | 2.86 | 95 | 1011.6 |
| 20260502045459 | 57 | 44 | 0.9 | 7.0 | 0.00 | 2.86 | 2.86 | 96 | 1011.5 |
| 20260502044959 | 57 | 11 | 0.9 | 8.7 | 0.00 | 2.86 | 2.86 | 96 | 1011.4 |
| 20260502044457 | 57 | 12 | 1.7 | 8.7 | 0.00 | 2.86 | 2.86 | 96 | 1011.5 |
| 20260502043955 | 57 | 58 | 0.9 | 7.0 | 0.00 | 2.86 | 2.86 | 96 | 1011.4 |
| 20260502043454 | 57 | 89 | 0.9 | 7.8 | 0.00 | 2.86 | 2.86 | 96 | 1011.4 |
| 20260502042956 | 57 | 68 | 0.9 | 7.8 | 0.00 | 2.86 | 2.86 | 96 | 1011.4 |
| 20260502042453 | 57 | 41 | 0.9 | 7.0 | 0.00 | 2.86 | 2.86 | 96 | 1011.6 |
| 20260502041953 | 57 | 346 | 0.9 | 4.3 | 0.00 | 2.86 | 2.86 | 96 | 1011.5 |
| 20260502041719 | 56 | 355 | 0.9 | 7.0 | 0.00 | 2.86 | 2.86 | 96 | 1011.6 |
| 20260502040950 | 56 | 35 | 0.9 | 7.0 | 0.00 | 2.86 | 2.86 | 97 | 1011.4 |
| 20260502040448 | 56 | 312 | 0.9 | 5.2 | 0.00 | 2.87 | 2.86 | 97 | 1011.5 |
| 20260502035947 | 56 | 70 | 1.7 | 5.2 | 0.00 | 2.87 | 2.86 | 97 | 1011.4 |
| 20260502035719 | 56 | 109 | 1.7 | 12.2 | 0.00 | 2.87 | 2.86 | 97 | 1011.4 |
| 20260502034946 | 56 | 351 | 1.7 | 12.2 | 0.00 | 2.87 | 2.86 | 97 | 1011.2 |
| 20260502034444 | 57 | 60 | 1.7 | 7.8 | 0.00 | 2.87 | 2.86 | 97 | 1011.2 |
| 20260502033944 | 56 | 305 | 2.6 | 7.8 | 0.00 | 2.87 | 2.86 | 97 | 1011.2 |
| 20260502033444 | 56 | 96 | 2.6 | 8.7 | 0.00 | 2.87 | 2.86 | 97 | 1011.2 |
| 20260502032944 | 57 | 343 | 1.7 | 8.7 | 0.00 | 2.87 | 2.86 | 97 | 1011.1 |
| 20260502032717 | 57 | 58 | 1.7 | 7.0 | 0.00 | 2.87 | 2.86 | 97 | 1010.9 |
| 20260502031945 | 57 | 23 | 2.6 | 7.0 | 0.00 | 2.87 | 2.86 | 97 | 1010.7 |
| 20260502031445 | 57 | 321 | 1.7 | 7.8 | 0.00 | 2.87 | 2.86 | 97 | 1010.7 |
| 20260502030945 | 57 | 52 | 1.7 | 7.0 | 0.00 | 2.88 | 2.86 | 97 | 1010.3 |
| 20260502030938 | 57 | 338 | 1.7 | 7.8 | 0.00 | 2.88 | 2.86 | 97 | 1010.5 |
| 20260502025938 | 57 | 53 | 0.9 | 6.1 | 0.01 | 2.88 | 2.86 | 97 | 1010.2 |
| 20260502025439 | 58 | 26 | 0.9 | 6.1 | 0.01 | 2.88 | 2.86 | 97 | 1010.3 |
| 20260502025209 | 58 | 58 | 1.7 | 7.0 | 0.01 | 2.88 | 2.86 | 97 | 1009.9 |
| 20260502024436 | 58 | 6 | 1.7 | 7.0 | 0.02 | 2.88 | 2.86 | 97 | 1009.8 |
| 20260502023931 | 58 | 51 | 1.7 | 9.6 | 0.02 | 2.88 | 2.86 | 97 | 1009.7 |
| 20260502023430 | 58 | 222 | 1.7 | 9.6 | 0.02 | 2.88 | 2.86 | 98 | 1009.5 |
| 20260502023201 | 58 | 35 | 0.9 | 7.0 | 0.03 | 2.88 | 2.86 | 98 | 1009.3 |
| 20260502022430 | 58 | 356 | 0.9 | 3.5 | 0.03 | 2.88 | 2.86 | 98 | 1009.4 |
| 20260502021929 | 58 | 34 | 0.9 | 3.5 | 0.03 | 2.88 | 2.86 | 98 | 1009.3 |
| 20260502021429 | 58 | 127 | 0.9 | 3.5 | 0.03 | 2.88 | 2.86 | 98 | 1009.1 |
| 20260502021155 | 58 | 41 | 0.9 | 7.0 | 0.03 | 2.88 | 2.86 | 98 | 1009.2 |
| 20260502020424 | 58 | 352 | 1.7 | 7.0 | 0.03 | 2.88 | 2.86 | 98 | 1009.5 |
| 20260502015923 | 58 | 64 | 1.7 | 7.0 | 0.03 | 2.87 | 2.85 | 98 | 1009.4 |
| 20260502015424 | 58 | 358 | 0.9 | 7.0 | 0.04 | 2.87 | 2.85 | 98 | 1009.4 |
| 20260502014924 | 59 | 44 | 0.9 | 7.8 | 0.05 | 2.87 | 2.85 | 98 | 1009.4 |
| 20260502014424 | 59 | 354 | 0.9 | 7.8 | 0.04 | 2.86 | 2.84 | 98 | 1009.4 |
| 20260502014156 | 58 | 37 | 1.7 | 8.7 | 0.04 | 2.86 | 2.84 | 98 | 1009.5 |
| 20260502013421 | 58 | 13 | 1.7 | 8.7 | 0.05 | 2.86 | 2.84 | 98 | 1009.2 |
| 20260502012921 | 59 | 348 | 1.7 | 8.7 | 0.04 | 2.85 | 2.83 | 98 | 1009.0 |
| 20260502012420 | 59 | 34 | 1.7 | 8.7 | 0.04 | 2.85 | 2.83 | 97 | 1008.9 |
| 20260502011922 | 59 | 318 | 0.9 | 5.2 | 0.04 | 2.85 | 2.83 | 98 | 1009.1 |
| 20260502011419 | 59 | 303 | 0.9 | 5.2 | 0.05 | 2.85 | 2.83 | 98 | 1009.0 |
| 20260502010919 | 59 | 224 | 0.9 | 7.0 | 0.05 | 2.85 | 2.83 | 98 | 1008.5 |
| 20260502010415 | 59 | 358 | 0.9 | 7.0 | 0.06 | 2.85 | 2.83 | 98 | 1008.3 |
| 20260502005915 | 59 | 27 | 1.7 | 7.0 | 0.07 | 2.84 | 2.82 | 98 | 1008.3 |
| 20260502005412 | 59 | 316 | 1.7 | 7.0 | 0.11 | 2.83 | 2.81 | 97 | 1008.3 |
| 20260502004913 | 59 | 349 | 0.9 | 5.2 | 0.15 | 2.82 | 2.80 | 98 | 1008.3 |
| 20260502004411 | 59 | 19 | 1.7 | 8.7 | 0.21 | 2.82 | 2.80 | 98 | 1008.3 |
| 20260502003911 | 59 | 28 | 1.7 | 8.7 | 0.25 | 2.82 | 2.80 | 97 | 1008.2 |
| 20260502003408 | 59 | 323 | 0.9 | 7.0 | 0.24 | 2.81 | 2.80 | 98 | 1007.8 |
| 20260502002909 | 59 | 319 | 1.7 | 7.0 | 0.25 | 2.81 | 2.79 | 98 | 1007.8 |
| 20260502002640 | 60 | 290 | 0.9 | 5.2 | 0.25 | 2.81 | 2.79 | 97 | 1007.4 |
| 20260502001909 | 60 | 356 | 1.7 | 6.1 | 0.25 | 2.81 | 2.79 | 97 | 1007.2 |
| 20260502001407 | 60 | 27 | 1.7 | 9.6 | 0.25 | 2.80 | 2.78 | 97 | 1007.4 |
| 20260502000905 | 60 | 37 | 0.9 | 9.6 | 0.29 | 2.80 | 2.78 | 97 | 1007.6 |
| 20260502000405 | 60 | 10 | 0.9 | 5.2 | 0.31 | 2.79 | 2.77 | 97 | 1007.5 |
| 20260501235907 | 60 | 350 | 1.7 | 6.1 | 0.32 | 2.77 | 2.75 | 97 | 1007.5 |
| 20260501235406 | 60 | 309 | 1.7 | 7.8 | 0.30 | 2.72 | 2.72 | 97 | 1007.5 |
| 20260501234913 | 60 | 318 | 2.6 | 11.3 | 0.29 | 2.67 | 2.65 | 97 | 1007.5 |
| 20260501234405 | 60 | 124 | 2.6 | 11.3 | 0.33 | 2.61 | 2.60 | 97 | 1007.7 |
| 20260501233906 | 60 | 354 | 1.7 | 10.4 | 0.30 | 2.57 | 2.56 | 97 | 1007.3 |
| 20260501233407 | 60 | 11 | 1.7 | 10.4 | 0.30 | 2.57 | 2.55 | 97 | 1006.6 |
| 20260501233139 | 60 | 63 | 2.6 | 9.6 | 0.29 | 2.56 | 2.55 | 97 | 1006.4 |
| 20260501232405 | 60 | 64 | 2.6 | 9.6 | 0.29 | 2.56 | 2.54 | 97 | 1005.3 |
| 20260501232137 | 60 | 40 | 1.7 | 8.7 | 0.29 | 2.56 | 2.54 | 97 | 1005.7 |
| 20260501231406 | 60 | 45 | 1.7 | 8.7 | 0.28 | 2.55 | 2.53 | 97 | 1006.1 |
| 20260501230907 | 60 | 23 | 0.9 | 7.0 | 0.24 | 2.51 | 2.50 | 97 | 1006.4 |
| 20260501230402 | 61 | 6 | 1.7 | 7.0 | 0.20 | 2.47 | 2.46 | 97 | 1006.4 |
| 20260501225859 | 61 | 113 | 2.6 | 8.7 | 0.18 | 2.45 | 2.43 | 97 | 1006.4 |
| 20260501225400 | 61 | 53 | 2.6 | 8.7 | 0.15 | 2.42 | 2.41 | 97 | 1006.2 |
| 20260501224900 | 61 | 16 | 2.6 | 8.7 | 0.12 | 2.38 | 2.37 | 97 | 1005.8 |
| 20260501224631 | 61 | 55 | 1.7 | 7.8 | 0.02 | 2.28 | 2.27 | 97 | 1006.5 |
| 20260501223901 | 61 | 281 | 2.6 | 11.3 | 0.01 | 2.27 | 2.25 | 98 | 1006.5 |
| 20260501223626 | 61 | 63 | 2.6 | 11.3 | 0.02 | 2.27 | 2.25 | 97 | 1006.0 |
| 20260501222857 | 61 | 46 | 2.6 | 7.0 | 0.03 | 2.27 | 2.25 | 98 | 1006.1 |
| 20260501222626 | 61 | 45 | 2.6 | 10.4 | 0.03 | 2.27 | 2.25 | 98 | 1006.1 |
| 20260501221855 | 61 | 43 | 3.5 | 12.2 | 0.03 | 2.27 | 2.25 | 97 | 1005.9 |
| 20260501221356 | 61 | 60 | 2.6 | 12.2 | 0.03 | 2.27 | 2.25 | 97 | 1005.7 |
| 20260501220857 | 62 | 20 | 2.6 | 11.3 | 0.03 | 2.27 | 2.25 | 98 | 1005.7 |
| 20260501220351 | 62 | 24 | 2.6 | 11.3 | 0.03 | 2.27 | 2.25 | 98 | 1005.8 |
| 20260501215853 | 62 | 37 | 1.7 | 8.7 | 0.04 | 2.27 | 2.25 | 98 | 1006.2 |
| 20260501215353 | 62 | 340 | 1.7 | 8.7 | 0.04 | 2.27 | 2.25 | 98 | 1006.3 |
| 20260501214851 | 62 | 354 | 0.9 | 8.7 | 0.04 | 2.26 | 2.24 | 98 | 1006.3 |
| 20260501214352 | 62 | 309 | 0.9 | 7.0 | 0.10 | 2.26 | 2.24 | 98 | 1006.4 |
| 20260501213853 | 62 | 48 | 1.7 | 10.4 | 0.12 | 2.26 | 2.24 | 98 | 1006.5 |
| 20260501213348 | 62 | 27 | 1.7 | 10.4 | 0.13 | 2.25 | 2.23 | 98 | 1006.6 |
| 20260501212848 | 62 | 43 | 1.7 | 6.1 | 0.13 | 2.24 | 2.22 | 98 | 1006.2 |
| 20260501212349 | 62 | 319 | 1.7 | 10.4 | 0.14 | 2.24 | 2.22 | 98 | 1006.7 |
| 20260501212120 | 62 | 357 | 0.9 | 10.4 | 0.15 | 2.24 | 2.22 | 98 | 1006.8 |
| 20260501211349 | 62 | 46 | 0.0 | 3.5 | 0.17 | 2.24 | 2.22 | 98 | 1006.1 |
| 20260501210849 | 62 | 349 | 0.9 | 2.6 | 0.17 | 2.24 | 2.22 | 98 | 1006.2 |
| 20260501210349 | 62 | 85 | 0.9 | 4.3 | 0.19 | 2.24 | 2.22 | 98 | 1006.4 |
| 20260501205847 | 62 | 70 | 0.9 | 4.3 | 0.19 | 2.23 | 2.21 | 98 | 1005.8 |
| 20260501205348 | 62 | 54 | 1.7 | 5.2 | 0.19 | 2.23 | 2.21 | 98 | 1006.0 |
| 20260501204848 | 62 | 148 | 1.7 | 6.1 | 0.19 | 2.22 | 2.20 | 98 | 1005.4 |
| 20260501204349 | 63 | 51 | 1.7 | 7.0 | 0.14 | 2.16 | 2.16 | 98 | 1004.9 |
| 20260501203847 | 63 | 79 | 1.7 | 7.0 | 0.14 | 2.13 | 2.12 | 98 | 1005.4 |
| 20260501203346 | 63 | 352 | 1.7 | 11.3 | 0.18 | 2.12 | 2.10 | 98 | 1004.9 |
| 20260501202845 | 63 | 314 | 1.7 | 11.3 | 0.22 | 2.11 | 2.09 | 98 | 1004.8 |
| 20260501202342 | 63 | 121 | 1.7 | 6.1 | 0.31 | 2.10 | 2.08 | 98 | 1004.6 |
| 20260501201841 | 63 | 91 | 1.7 | 8.7 | 0.38 | 2.08 | 2.06 | 98 | 1004.8 |
| 20260501201340 | 63 | 329 | 1.7 | 8.7 | 0.45 | 2.07 | 2.05 | 98 | 1004.8 |
| 20260501200840 | 63 | 18 | 1.7 | 9.6 | 0.50 | 2.06 | 2.04 | 98 | 1005.2 |
| 20260501200334 | 63 | 83 | 2.6 | 9.6 | 0.52 | 2.05 | 2.04 | 98 | 1005.2 |
| 20260501195833 | 63 | 76 | 1.7 | 6.1 | 0.51 | 2.04 | 2.02 | 98 | 1004.8 |
| 20260501195334 | 63 | 55 | 0.9 | 2.6 | 0.52 | 2.04 | 2.02 | 98 | 1005.2 |
| 20260501194833 | 63 | 32 | 1.7 | 8.7 | 0.52 | 2.03 | 2.01 | 98 | 1005.4 |
| 20260501194333 | 63 | 41 | 3.5 | 8.7 | 0.52 | 2.02 | 2.01 | 98 | 1004.9 |
| 20260501193834 | 63 | 75 | 3.5 | 8.7 | 0.51 | 1.99 | 1.98 | 98 | 1004.6 |
| 20260501193334 | 63 | 71 | 3.5 | 9.6 | 0.47 | 1.94 | 1.92 | 97 | 1004.8 |
| 20260501192833 | 63 | 46 | 3.5 | 9.6 | 0.43 | 1.89 | 1.87 | 97 | 1004.5 |
| 20260501192336 | 63 | 65 | 1.7 | 8.7 | 0.35 | 1.79 | 1.79 | 97 | 1003.9 |
| 20260501191832 | 63 | 39 | 0.9 | 6.1 | 0.27 | 1.70 | 1.69 | 98 | 1004.7 |
| 20260501191326 | 63 | 307 | 0.9 | 6.1 | 0.20 | 1.62 | 1.60 | 97 | 1005.5 |
| 20260501190824 | 63 | 335 | 1.7 | 4.3 | 0.14 | 1.55 | 1.54 | 97 | 1005.4 |
| 20260501190325 | 63 | 1 | 1.7 | 7.0 | 0.15 | 1.53 | 1.52 | 97 | 1005.0 |
| 20260501190055 | 63 | 35 | 1.7 | 9.6 | 0.20 | 1.52 | 1.50 | 97 | 1004.8 |
| 20260501185324 | 63 | 40 | 1.7 | 9.6 | 0.26 | 1.51 | 1.50 | 97 | 1004.8 |
| 20260501184824 | 63 | 110 | 3.5 | 11.3 | 0.28 | 1.51 | 1.49 | 97 | 1004.6 |
| 20260501184321 | 63 | 63 | 4.3 | 11.3 | 0.26 | 1.49 | 1.48 | 97 | 1003.9 |
| 20260501183823 | 63 | 58 | 5.2 | 11.3 | 0.26 | 1.48 | 1.47 | 97 | 1004.5 |
| 20260501183552 | 63 | 96 | 5.2 | 11.3 | 0.25 | 1.47 | 1.45 | 97 | 1004.5 |
| 20260501183053 | 63 | 79 | 2.6 | 9.6 | 0.23 | 1.45 | 1.44 | 97 | 1004.5 |
| 20260501182322 | 63 | 47 | 1.7 | 7.0 | 0.23 | 1.44 | 1.42 | 98 | 1006.3 |
| 20260501181823 | 63 | 4 | 2.6 | 11.3 | 0.22 | 1.43 | 1.41 | 97 | 1006.6 |
| 20260501181322 | 63 | 30 | 5.2 | 12.2 | 0.22 | 1.42 | 1.40 | 97 | 1005.7 |
| 20260501181051 | 63 | 88 | 5.2 | 12.2 | 0.22 | 1.41 | 1.39 | 97 | 1005.0 |
| 20260501180318 | 63 | 28 | 3.5 | 12.2 | 0.20 | 1.38 | 1.37 | 97 | 1005.0 |
| 20260501175815 | 63 | 56 | 1.7 | 7.0 | 0.16 | 1.30 | 1.30 | 97 | 1005.9 |
| 20260501175317 | 63 | 318 | 0.9 | 9.6 | 0.17 | 1.24 | 1.23 | 97 | 1006.6 |
| 20260501174814 | 63 | 29 | 0.9 | 9.6 | 0.20 | 1.23 | 1.21 | 97 | 1006.3 |
| 20260501174314 | 64 | 19 | 0.9 | 6.1 | 0.21 | 1.23 | 1.21 | 97 | 1006.2 |
| 20260501173808 | 64 | 122 | 1.7 | 6.1 | 0.20 | 1.22 | 1.21 | 97 | 1006.0 |
| 20260501173308 | 64 | 127 | 1.7 | 5.2 | 0.20 | 1.22 | 1.20 | 97 | 1005.9 |
| 20260501173038 | 64 | 8 | 1.7 | 5.2 | 0.22 | 1.22 | 1.20 | 97 | 1005.7 |
| 20260501172537 | 64 | 7 | 0.9 | 6.1 | 0.22 | 1.21 | 1.19 | 97 | 1006.0 |
| 20260501171809 | 64 | 23 | 1.7 | 10.4 | 0.29 | 1.21 | 1.19 | 97 | 1006.0 |
| 20260501171308 | 63 | 51 | 1.7 | 10.4 | 0.63 | 1.20 | 1.18 | 97 | 1005.9 |
| 20260501170803 | 63 | 57 | 1.7 | 7.8 | 0.79 | 1.19 | 1.17 | 97 | 1005.8 |
| 20260501170302 | 63 | 72 | 1.7 | 7.8 | 0.87 | 1.17 | 1.16 | 97 | 1006.2 |
| 20260501165801 | 63 | 335 | 2.6 | 7.8 | 0.84 | 1.14 | 1.12 | 97 | 1006.4 |
| 20260501165306 | 63 | 53 | 1.7 | 7.8 | 0.78 | 1.07 | 1.06 | 97 | 1006.6 |
| 20260501164800 | 63 | 123 | 1.7 | 7.0 | 0.74 | 1.03 | 1.01 | 97 | 1007.3 |
| 20260501164259 | 63 | 308 | 1.7 | 6.1 | 0.73 | 1.02 | 1.00 | 97 | 1007.0 |
| 20260501163757 | 63 | 54 | 1.7 | 7.8 | 0.73 | 1.02 | 1.00 | 97 | 1006.6 |